www.pogodaiklimat.ru

Погода и климат >> Архив погоды >> Бразилия >> Comodoro


ПОГОДА в Comodoro

  • Прогноз погоды в Comodoro
  • Монитор погоды в Comodoro
  • Климат города

АРХИВ ПОГОДЫ в Comodoro

Время (UTC), дата Ветер
(напр.,м/с)
 
Видим.   Явления Облачность Т
(С)
Тd
(С)
f
(%)
Тe
(С)
Тes
(С)
Комфортность P
(гПа)
Po
(гПа)
Тmin
(С)
Tmax
(С)
R
(мм)
R24
(мм)
S
(см)
01 14.11 С 1
{3}
н/о н/о +22.7 +21.4 92 +30 +30 очень
душно
1010.0 944.9
02 14.11 СЗ 1
{2}
н/о н/о +22.7 +21.2 91 +30 +30 очень
душно
1010.1 945.0
03 14.11 штиль 0
{2}
н/о н/о +22.6 +20.9 90 +30 +30 очень
душно
1010.2 945.0
05 14.11 штиль 0
{1}
н/о н/о +21.7 +20.7 94 +28 +28 душно 1009.5 944.2
04 14.11 штиль 0
{1}
н/о н/о +22.1 +21.0 93 +29 +29 очень
душно
1010.3 945.0
06 14.11 штиль 0
{1}
н/о н/о +21.3 +20.3 94 +26 +26 душно 1009.4 944.0
07 14.11 штиль 0
{1}
н/о н/о +20.7 +19.8 95 +25 +25 комфорт 1009.5 944.0
08 14.11 штиль 0
{1}
н/о н/о +20.5 +19.6 95 +24 +24 комфорт 1009.5 943.9 0.2
09 14.11 С 1
{2}
н/о н/о +20.9 +20.1 95 +27 +27 душно 1010.2 944.7
11 14.11 З 1
{2}
н/о н/о +23.1 +21.4 90 +31 +31 очень
душно
1011.3 946.2
10 14.11 штиль 0
{1}
н/о н/о +21.5 +20.7 95 +27 +27 душно 1010.9 945.5
12 14.11 З 2
{3}
н/о н/о +24.7 +22.0 85 +32 +32 очень
душно
1011.8 947.0
13 14.11 З 2
{4}
н/о н/о +25.5 +21.9 81 +33 +33 очень
душно
1011.8 947.2
14 14.11 З 2
{3}
н/о н/о +26.1 +21.6 76 +33 +33 очень
душно
1011.8 947.3
15 14.11 З 2
{4}
н/о н/о +26.6 +22.7 79 +35 +35 очень
душно
1011.4 947.0
17 14.11 ЮЗ 3
{4}
н/о н/о +27.9 +21.8 69 +36 +36 очень
душно
1008.6 944.7
16 14.11 З 2
{4}
н/о н/о +27.2 +22.5 76 +36 +36 очень
душно
1010.1 945.9
18 14.11 ЮЗ 2
{4}
н/о н/о +28.5 +22.0 68 +37 +37 очень
душно
1006.7 943.0
19 14.11 З 3
{5}
н/о н/о +29.4 +21.8 64 +38 +38 очень
душно
1006.5 943.0
20 14.11 З 2
{4}
н/о н/о +28.8 +22.0 67 +37 +37 очень
душно
1006.0 942.4
21 14.11 СЗ 2
{4}
н/о н/о +27.3 +21.9 72 +35 +35 очень
душно
1007.2 943.2
23 14.11 штиль 0
{1}
н/о н/о +23.1 +21.0 88 +31 +31 очень
душно
1009.5 944.5
22 14.11 СЗ 1
{3}
н/о н/о +25.9 +21.7 78 +33 +33 очень
душно
1008.1 943.8
00 15.11 В 1
{1}
н/о н/о +22.5 +20.8 90 +29 +29 очень
душно
1010.4 945.2
01 15.11 В 1
{2}
н/о н/о +22.3 +20.1 87 +28 +28 душно 1011.5 946.2
02 15.11 штиль 0
{2}
н/о н/о +21.8 +20.0 90 +27 +27 душно 1011.7 946.3
03 15.11 В 1
{1}
н/о н/о +21.7 +20.2 91 +27 +27 душно 1011.4 946.0
05 15.11 ЮВ 1
{1}
н/о н/о +21.7 +20.4 92 +27 +27 душно 1010.1 944.8
04 15.11 Ю 1
{2}
н/о н/о +22.1 +20.5 91 +28 +28 душно 1010.5 945.2
06 15.11 штиль 0
{1}
н/о н/о +21.4 +20.2 93 +27 +27 душно 1009.6 944.2
07 15.11 штиль 0
{1}
н/о н/о +21.4 +20.3 93 +27 +27 душно 1009.4 944.0
08 15.11 штиль 0
{1}
н/о н/о +21.6 +20.2 92 +27 +27 душно 1009.3 944.0
09 15.11 штиль 0
{1}
н/о н/о +21.0 +20.0 94 +26 +26 душно 1009.7 944.2
11 15.11 штиль 0
{1}
н/о н/о +25.2 +17.9 64 +30 +30 душно 1010.1 945.5
10 15.11 штиль 0
{1}
н/о н/о +21.6 +20.5 93 +27 +27 душно 1010.1 944.7
12 15.11 ЮВ 1
{1}
н/о н/о +29.5 +20.1 57 +36 +36 очень
душно
1010.0 946.3
13 15.11 ЮЗ 1
{2}
н/о н/о +30.9 +21.7 58 +39 +39 очень
душно
1009.9 946.5
14 15.11 СЗ 1
{2}
н/о н/о +31.6 +22.3 58 +41 +41 опасность
перегрева
1009.7 946.4
15 15.11 ЮЗ 2
{3}
н/о н/о +27.9 +22.3 72 +37 +37 очень
душно
1010.0 946.0
17 15.11 штиль 0
{2}
н/о н/о +23.5 +22.1 92 +30 +30 очень
душно
1009.4 944.5 0.8
16 15.11 Ю 1
{4}
н/о н/о +21.8 +20.4 92 +28 +28 душно 1011.1 945.7 40
18 15.11 СЗ 1
{2}
н/о н/о +25.2 +22.3 84 +33 +33 очень
душно
1007.4 943.0
19 15.11 СЗ 2
{3}
н/о н/о +26.4 +21.7 75 +34 +34 очень
душно
1006.6 942.5
20 15.11 СЗ 1
{3}
н/о н/о +26.8 +21.8 74 +34 +34 очень
душно
1007.1 943.0
21 15.11 З 1
{3}
н/о н/о +26.6 +20.8 71 +33 +33 очень
душно
1007.4 943.3
23 15.11 З 1
{2}
н/о н/о +23.0 +21.0 89 +31 +31 очень
душно
1010.0 944.9
22 15.11 СЗ 1
{3}
н/о н/о +24.0 +20.5 81 +30 +30 очень
душно
1008.6 943.8
00 16.11 З 1
{2}
н/о н/о +22.8 +21.1 90 +30 +30 очень
душно
1010.6 945.5
01 16.11 З 1
{2}
н/о н/о +22.7 +21.3 92 +30 +30 очень
душно
1011.5 946.3
02 16.11 штиль 0
{2}
н/о н/о +22.7 +21.2 91 +30 +30 очень
душно
1011.9 946.7
03 16.11 штиль 0
{1}
н/о н/о +22.1 +20.7 92 +28 +28 душно 1011.4 946.1
05 16.11 штиль 0
{1}
н/о н/о +21.3 +20.3 94 +26 +26 душно 1010.6 945.1
04 16.11 штиль 0
{1}
н/о н/о +21.4 +20.3 93 +27 +27 душно 1011.0 945.5
06 16.11 штиль 0
{1}
н/о н/о +20.8 +19.9 95 +25 +25 комфорт 1010.3 944.8
07 16.11 штиль 0
{1}
н/о н/о +20.8 +20.0 95 +25 +25 комфорт 1010.1 944.6
08 16.11 штиль 0
{1}
н/о н/о +20.8 +19.9 95 +25 +25 комфорт 1010.1 944.6
09 16.11 штиль 0
{1}
н/о н/о +21.0 +20.1 95 +26 +26 душно 1010.4 944.9
11 16.11 штиль 0
{1}
н/о н/о +22.2 +21.3 95 +29 +29 очень
душно
1012.4 947.0
10 16.11 штиль 0
{1}
н/о н/о +21.7 +20.8 95 +28 +28 душно 1011.3 945.9
12 16.11 штиль 0
{1}
н/о н/о +23.3 +19.7 80 +30 +30 очень
душно
1012.6 947.4
13 16.11 Ю 1
{2}
н/о н/о +24.8 +19.9 74 +30 +30 душно 1012.3 947.5
14 16.11 ЮВ 1
{2}
н/о н/о +27.5 +20.6 66 +34 +34 очень
душно
1011.8 947.6
15 16.11 ЮЗ 1
{3}
н/о н/о +28.6 +20.1 60 +35 +35 очень
душно
1011.1 947.1
17 16.11 Ю 2
{4}
н/о н/о +29.9 +21.3 60 +38 +38 очень
душно
1008.5 945.0
16 16.11 ЮЗ 2
{3}
н/о н/о +29.1 +21.4 63 +37 +37 очень
душно
1010.0 946.2
18 16.11 Ю 1
{3}
н/о н/о +30.4 +21.1 58 +38 +38 очень
душно
1007.0 943.7
19 16.11 ЮЗ 1
{3}
н/о н/о +30.6 +21.6 59 +39 +39 очень
душно
1006.2 943.0
20 16.11 С 2
{4}
н/о н/о +23.6 +21.9 90 +30 +30 очень
душно
1007.6 942.8 3
21 16.11 штиль 0
{5}
н/о н/о +22.9 +21.7 93 +31 +31 очень
душно
1006.9 942.0 16
23 16.11 штиль 0
{2}
н/о н/о +22.6 +21.6 94 +30 +30 очень
душно
1008.0 943.0 4
22 16.11 штиль 0
{1}
н/о н/о +23.6 +22.3 92 +31 +31 очень
душно
1007.4 942.6
00 17.11 штиль 0 н/о н/о +22.1 +21.1 94 +29 +29 очень
душно
1009.6 944.4
01 17.11 штиль 0 н/о н/о +21.8 +20.9 95 +28 +28 душно 1010.2 944.9
02 17.11 штиль 0 н/о н/о +22.1 +21.2 95 +29 +29 очень
душно
1010.8 945.5
03 17.11 штиль 0 н/о н/о +22.1 +21.2 95 +29 +29 очень
душно
1010.5 945.2
05 17.11 штиль 0
{1}
н/о н/о +21.4 +20.3 93 +27 +27 душно 1009.9 944.5
04 17.11 штиль 0
{1}
н/о н/о +22.0 +21.0 94 +28 +28 душно 1010.5 945.2
06 17.11 штиль 0
{1}
н/о н/о +21.2 +20.2 94 +26 +26 душно 1009.3 943.9 2
07 17.11 штиль 0
{1}
н/о н/о +21.1 +20.1 94 +26 +26 душно 1009.0 943.6 0.6
08 17.11 штиль 0
{1}
н/о н/о +21.0 +20.1 95 +26 +26 душно 1008.9 943.5
09 17.11 штиль 0 н/о н/о +21.3 +20.4 95 +27 +27 душно 1009.4 944.0
11 17.11 штиль 0 н/о н/о +22.8 +21.9 95 +31 +31 очень
душно
1010.2 945.1
10 17.11 штиль 0 н/о н/о +21.9 +21.0 95 +28 +28 душно 1009.7 944.4
12 17.11 штиль 0 н/о н/о +24.3 +22.9 92 +32 +32 очень
душно
1010.7 945.9
13 17.11 штиль 0 н/о н/о +25.9 +20.2 71 +32 +32 очень
душно
1011.2 946.7
14 17.11 штиль 0
{1}
н/о н/о +27.5 +20.6 66 +34 +34 очень
душно
1010.5 946.4 0.2
15 17.11 штиль 0
{1}
н/о н/о +28.5 +20.6 62 +35 +35 очень
душно
1009.8 945.9
17 17.11 штиль 0
{1}
н/о н/о +30.0 +21.3 60 +38 +38 очень
душно
1007.3 943.9
16 17.11 штиль 0
{1}
н/о н/о +30.0 +19.9 55 +36 +36 очень
душно
1008.3 944.8
18 17.11 штиль 0
{1}
н/о н/о +28.8 +21.5 65 +37 +37 очень
душно
1006.6 943.0
19 17.11 СВ 1
{3}
н/о н/о +27.7 +22.4 73 +36 +36 очень
душно
1006.1 942.3
20 17.11 С 1
{2}
н/о н/о +28.1 +21.8 69 +36 +36 очень
душно
1004.9 941.2
21 17.11 С 1
{2}
н/о н/о +27.8 +21.8 70 +36 +36 очень
душно
1004.7 941.0
23 17.11 штиль 0
{1}
н/о н/о +24.2 +22.4 90 +32 +32 очень
душно
1007.0 942.4
22 17.11 штиль 0
{2}
н/о н/о +26.9 +22.7 78 +36 +36 очень
душно
1005.4 941.5
00 18.11 штиль 0
{1}
н/о н/о +24.2 +21.4 84 +31 +31 очень
душно
1008.4 943.7
01 18.11 штиль 0
{1}
н/о н/о +23.6 +21.5 88 +30 +30 очень
душно
1009.2 944.3
02 18.11 штиль 0
{1}
н/о н/о +23.0 +21.5 91 +31 +31 очень
душно
1010.2 945.1
03 18.11 СВ 1
{2}
н/о н/о +23.4 +21.0 86 +31 +31 очень
душно
1010.5 945.5
04 18.11 З 2
{3}
н/о н/о +23.0 +20.6 86 +30 +30 очень
душно
1010.6 945.5
06 18.11 штиль 0
{1}
н/о н/о +21.7 +20.7 94 +28 +28 душно 1009.7 944.4 1
07 18.11 С 1
{1}
н/о н/о +22.6 +21.6 94 +30 +30 очень
душно
1009.8 944.7 0.2
08 18.11 С 1
{2}
н/о н/о +22.4 +21.3 94 +29 +29 очень
душно
1010.0 944.8
09 18.11 СВ 1
{3}
н/о н/о +22.1 +20.9 93 +29 +29 очень
душно
1010.2 944.9
10 18.11 СВ 1
{2}
н/о н/о +22.6 +21.3 92 +30 +30 очень
душно
1011.0 945.8
11 18.11 С 1
{2}
н/о н/о +23.4 +21.4 89 +32 +32 очень
душно
1011.9 946.8
12 18.11 С 2
{3}
н/о н/о +25.7 +21.8 79 +33 +33 очень
душно
1011.5 946.9
13 18.11 С 1
{4}
н/о н/о +27.7 +21.8 70 +36 +36 очень
душно
1011.4 947.2
14 18.11 С 2
{4}
н/о н/о +28.1 +22.1 70 +37 +37 очень
душно
1011.5 947.4
15 18.11 С 1
{3}
н/о н/о +28.2 +22.5 71 +37 +37 очень
душно
1010.9 946.9
16 18.11 З 1
{3}
н/о н/о +27.9 +22.2 71 +36 +36 очень
душно
1009.7 945.7 2
17 18.11 СЗ 1
{4}
н/о н/о +28.7 +21.2 64 +36 +36 очень
душно
1008.0 944.3 2
18 18.11 штиль 0
{4}
н/о н/о +27.3 +25.4 89 +40 +40 очень
душно
1007.3 943.3 8
19 18.11 штиль 0
{2}
н/о н/о +28.0 +25.0 84 +40 +40 очень
душно
1006.9 943.1
20 18.11 ЮЗ 2
{3}
н/о н/о +26.6 +23.3 82 +36 +36 очень
душно
1007.1 943.0
21 18.11 СЗ 2
{3}
н/о н/о +24.3 +22.3 89 +32 +32 очень
душно
1009.1 944.4 1
22 18.11 СЗ 1
{3}
н/о н/о +22.9 +21.3 91 +30 +30 очень
душно
1009.7 944.6 3
23 18.11 штиль 0
{2}
н/о н/о +22.5 +21.4 94 +30 +30 очень
душно
1010.5 945.3 3
00 19.11 штиль 0 н/о н/о +22.4 +21.4 94 +29 +29 очень
душно
1011.8 946.5 0.2
01 19.11 штиль 0 н/о н/о +22.3 +21.4 95 +29 +29 очень
душно
1013.0 947.6
02 19.11 штиль 0 н/о н/о +22.2 +21.2 94 +29 +29 очень
душно
1013.6 948.1
03 19.11 штиль 0 н/о н/о +22.2 +21.1 93 +29 +29 очень
душно
1013.4 948.0 0.2
04 19.11 С 1
{2}
н/о н/о +21.6 +20.4 93 +27 +27 душно 1012.9 947.4 2
05 19.11 штиль 0
{2}
н/о н/о +21.5 +20.5 94 +27 +27 душно 1011.8 946.3 4
06 19.11 штиль 0 н/о н/о +21.5 +20.6 95 +27 +27 душно 1010.9 945.5 1
07 19.11 З 1
{2}
н/о н/о +22.0 +21.1 95 +28 +28 душно 1010.4 945.1
08 19.11 штиль 0
{1}
н/о н/о +21.9 +21.1 95 +28 +28 душно 1010.4 945.1
09 19.11 штиль 0
{1}
н/о н/о +22.0 +21.1 95 +28 +28 душно 1010.7 945.4
10 19.11 штиль 0
{1}
н/о н/о +22.4 +21.5 95 +30 +30 очень
душно
1011.6 946.3
11 19.11 З 1
{1}
н/о н/о +22.8 +21.5 92 +30 +30 очень
душно
1012.5 947.2
12 19.11 ЮЗ 1
{2}
н/о н/о +23.9 +21.5 86 +30 +30 очень
душно
1013.0 947.9
13 19.11 ЮЗ 1
{2}
н/о н/о +24.7 +20.8 79 +31 +31 очень
душно
1013.1 948.2
14 19.11 Ю 1
{2}
н/о н/о +26.0 +21.3 75 +33 +33 очень
душно
1012.5 947.9
15 19.11 Ю 1
{2}
н/о н/о +27.4 +21.4 70 +35 +35 очень
душно
1011.4 947.2
16 19.11 З 1
{2}
н/о н/о +29.6 +21.6 62 +38 +38 очень
душно
1009.9 946.2
17 19.11 ЮЗ 2
{3}
н/о н/о +28.0 +21.5 68 +36 +36 очень
душно
1008.7 944.8
18 19.11 ЮЗ 2
{4}
н/о н/о +29.8 +21.8 62 +38 +38 очень
душно
1007.2 943.7
19 19.11 СВ 2
{5}
н/о н/о +24.1 +20.8 82 +30 +30 очень
душно
1008.8 944.1
20 19.11 В 1
{3}
н/о н/о +22.6 +21.1 91 +30 +30 очень
душно
1008.8 943.7 3
21 19.11 штиль 0
{2}
н/о н/о +22.9 +21.5 92 +31 +31 очень
душно
1008.6 943.6 2
22 19.11 штиль 0
{1}
н/о н/о +22.5 +21.1 92 +30 +30 очень
душно
1009.1 944.0 0.2
23 19.11 штиль 0 н/о н/о +21.8 +20.8 94 +28 +28 душно 1009.9 944.6
00 20.11 штиль 0 н/о н/о +21.6 +20.7 95 +27 +27 душно 1010.9 945.5
01 20.11 штиль 0 н/о н/о +21.6 +20.7 95 +27 +27 душно 1012.2 946.7
02 20.11 штиль 0 н/о н/о +21.7 +20.8 95 +28 +28 душно 1012.4 946.9
03 20.11 штиль 0 н/о н/о +21.5 +20.6 95 +27 +27 душно 1012.3 946.8
04 20.11 штиль 0 н/о н/о +21.3 +20.4 95 +27 +27 душно 1011.8 946.3 0.2
05 20.11 штиль 0 н/о н/о +21.1 +20.2 95 +26 +26 душно 1011.1 945.6
06 20.11 штиль 0 н/о н/о +21.0 +20.2 95 +26 +26 душно 1010.7 945.2
07 20.11 штиль 0 н/о н/о +20.8 +20.0 95 +25 +25 комфорт 1010.5 944.9
08 20.11 штиль 0 н/о н/о +20.7 +19.9 95 +25 +25 комфорт 1010.6 945.0
09 20.11 штиль 0 н/о н/о +20.5 +19.7 95 +24 +24 комфорт 1011.3 945.6
10 20.11 штиль 0 н/о н/о +21.1 +20.3 95 +26 +26 душно 1011.9 946.3
11 20.11 штиль 0 н/о н/о +21.6 +20.8 95 +27 +27 душно 1012.7 947.2
12 20.11 штиль 0 н/о н/о +22.5 +20.8 90 +29 +29 очень
душно
1013.1 947.7
13 20.11 штиль 0 н/о н/о +24.0 +20.2 79 +30 +30 очень
душно
1013.1 948.1
14 20.11 штиль 0 н/о н/о +26.7 +21.2 72 +34 +34 очень
душно
1012.2 947.8
15 20.11 штиль 0 н/о н/о +27.6 +21.0 67 +35 +35 очень
душно
1011.5 947.3
16 20.11 штиль 0 н/о н/о +26.9 +21.2 71 +34 +34 очень
душно
1011.0 946.7
17 20.11 штиль 0
{1}
н/о н/о +27.9 +20.6 65 +35 +35 очень
душно
1009.3 945.3
18 20.11 штиль 0
{1}
н/о н/о +27.8 +19.9 62 +34 +34 очень
душно
1008.3 944.4
19 20.11 В 1
{3}
н/о н/о +25.3 +23.4 89 +34 +34 очень
душно
1008.4 943.9 4
20 20.11 штиль 0
{1}
н/о н/о +26.7 +24.1 86 +37 +37 очень
душно
1007.3 943.2
21 20.11 ЮЗ 2
{3}
н/о н/о +25.8 +21.8 79 +33 +33 очень
душно
1007.7 943.4
22 20.11 Ю 1
{3}
н/о н/о +24.0 +21.6 86 +31 +31 очень
душно
1008.6 943.8
23 20.11 штиль 0
{1}
н/о н/о +22.6 +21.3 92 +30 +30 очень
душно
1009.9 944.8

 

Местоположение метеостанции Comodoro (Бразилия): широта -13.72 долгота -59.77 высота над уровнем моря 593 м.

В архиве по умолчанию представлена погода в Comodoro за последнюю неделю. Архивные данные за месяц целиком и за предыдущие месяцы, начиная с января 2011 года, Вы можете получить, выбрав интересующий диапазон дат из раскрывающегося списка и нажав кнопку "Ввод!".


*Определитесь, кто Вы:
робот инопланетянин человек

Внимание! Время в таблицах - всемирное. Для получения местного времени необходимо прибавить поправку, которая в Comodoro равна -3 ч.

Смотрите также архив погоды в соседних городах и на ближайших метеорологических станциях:

Погода в Vilhena (Бразилия) (118 км)
Погода в Vilhena (Бразилия) (119 км)
Погода в Vila Bela da S Trind (Бразилия) (151 км)
Погода в Pontes E Lacerda (Бразилия) (176 км)
Погода в Campo Novo dos Parecis (Бразилия) (210 км)
Погода в Novo Mundo (Бразилия) (214 км)
Погода в Salto do Ceu (Бразилия) (236 км)
Погода в Tangara da Serra (Бразилия) (273 км)
Погода в Juina (Бразилия) (282 км)
Погода в Nova Maringa (Бразилия) (299 км)

Пояснения к столбцам:

Ветер - указаны скорость ветра в м/с - средняя за 10 мин, порывы в срок и между сроками (в фигурных скобках) и направление, откуда дует ветер: С - северный, СВ - северо-восточный, В - восточный, ЮВ - юго-восточный, Ю - южный, ЮЗ - юго-западный, З - западный, СЗ - северо-западный.
Видимость - горизонтальная дальность видимости в метрах или километрах. При видимости от 1 до 10 км при отсутствии осадков обычно наблюдается дымка, при ухудшении видимости до 1 км и менее - туман. В сухую погоду видимость может ухудшаться дымом, пылью или мглою.
Явления - указаны атмосферные явления, наблюдавшиеся в срок или в последний час перед сроком; фигурными скобками обозначены явления, наблюдавшиеся между сроками (за 1-3 часа до срока); квадратными скобками обозначены град или гололедные отложения с указанием их диаметра в мм.
Облачность - указаны через наклонную черту общая и нижняя облачность в баллах и высота нижней границы облаков в метрах; квадратными скобками обозначены формы облаков: Ci - перистые, Cs - перисто-слоистые, Cc - перисто-кучевые, Ac - высококучевые, As - высокослоистые, Sc - слоисто-кучевые, Ns - слоисто-дождевые, Cu - кучевые, Cb - кучево-дождевые. Подробнее классификацию облаков см. в Атласе облаков (PDF).
T - Температура воздуха - температура, измеренная на высоте 2 м над землей.
Td - Температура точки росы - температура, при понижении до которой содержащийся в воздухе водяной пар достигнет насыщения.
f - Относительная влажность воздуха - влажноcть воздуха, измеренная на высоте 2 м над землей.
Te - Эффективная температура - температура, которую ощущает одетый по сезону человек в тени. Характеристика душности погоды. При расчете учитывается влияние влажности воздуха и скорости ветра на теплоощущения человека.
Tes - Эффективная температура на солнце - температура, которую ощущает человек, с поправкой на солнечный нагрев. Характеристика знойности погоды. Зависит от высоты солнца над горизонтом, облачности и скорости ветра. Ночью, в пасмурную погоду, а также при ветре 12 м/с и более поправка равна нулю.
P - Атмосферное давление - приведенное к уровню моря атмосферное давление.
Po - Атмосферное давление - измеренное на уровне метеостанции атмосферное давление.
Tmin - Минимальная температура - минимум температуры воздуха на высоте 2 м над землей.
Tmax - Максимальная температура - максимум температуры воздуха на высоте 2 м над землей.
R - Количество осадков - Количество выпавших осадков за период времени, мм. При наведении курсора мыши на число - период времени, за который выпало указанное количество осадков.
R24 - Количество осадков - Количество выпавших осадков за 24 часа, мм.
S - Снежный покров - Высота снежного покрова, см. При наведении курсора мыши на число - состояние снежного покрова и степень покрытия местности в баллах.